Weather History for Emporia, KS

Change the Weather History Date:

Saturday, January 19, 2013

  Actual Average Record
Temperature  
Mean Temperature 49 °F 31 °F  
Max Temperature 63 °F 41 °F 63 °F (2013)
Min Temperature 35 °F 21 °F 1 °F (2008)
Degree Days  
Heating Degree Days 16 34  
Month to date heating degree days 596 646  
Since 1 July heating degree days 2352 2579  
Cooling Degree Days 0 0  
Month to date cooling degree days 0 0  
Year to date cooling degree days 0 0  
Moisture  
Dew Point 26 °F    
Average Humidity 42    
Maximum Humidity 64    
Minimum Humidity 20    
Precipitation  
Precipitation 0.00 in 0.02 in 0.12 in (2011)
Month to date precipitation 0.29 0.27  
Year to date precipitation 0.29 0.27  
Sea Level Pressure  
Sea Level Pressure 30.11 in    
Wind  
Wind Speed 10 mph (West)    
Max Wind Speed 21 mph    
Max Gust Speed 28 mph    
Visibility 10 miles    
Events      
T = Trace of Precipitation, MM = Missing Value Source: NWS Daily Summary

Daily Weather History Graph

Daily Weather History Graph

Search for Another Location

Airport:

Trip Planner

Search our weather history database for the weather conditions in past years. The results will help you decide how hot, cold, wet, or windy it might be!

Date:

Astronomy

Jan. 19, 2013 Rise Set
Actual Time 7:38 AM CST 5:33 PM CST
Civil Twilight 7:09 AM CST 6:01 PM CST
Nautical Twilight 6:37 AM CST 6:34 PM CST
Astronomical Twilight 6:06 AM CST 7:05 PM CST
Moon 11:58 AM CST (1/19) 1:15 AM CST (1/19)
Length of Visible Light 10h 51m
Length of Day
9h 54m
First Quarter, 57% of the Moon is Illuminated
Jan 19
First Quarter
Jan 26
Full
Feb 3
Last Quarter
Feb 10
New
Feb 17
First Quarter

Hourly Weather History & Observations

Time (CST) Temp. Windchill Dew Point Humidity Pressure Visibility Wind Dir Wind Speed Gust Speed Precip Events Conditions
12:53 AM 42.1 °F 33.6 °F 28.9 °F 60% 30.03 in 10.0 mi South 18.4 mph - N/A   Clear
1:53 AM 44.1 °F 35.9 °F 28.9 °F 55% 30.03 in 10.0 mi SSW 19.6 mph 27.6 mph N/A   Clear
2:53 AM 43.0 °F 35.4 °F 28.9 °F 58% 30.04 in 10.0 mi SSW 16.1 mph - N/A   Clear
3:53 AM 42.1 °F 35.7 °F 28.9 °F 60% 30.03 in 10.0 mi SW 11.5 mph - N/A   Clear
4:53 AM 41.0 °F 32.8 °F 28.9 °F 62% 30.01 in 10.0 mi SSW 16.1 mph - N/A   Clear
6:53 AM 39.0 °F 31.8 °F 28.9 °F 67% 30.04 in 10.0 mi SSW 11.5 mph - N/A   Clear
7:53 AM 39.0 °F 31.0 °F 28.9 °F 67% 30.05 in 10.0 mi SW 13.8 mph - N/A   Clear
8:53 AM 42.1 °F 34.9 °F 30.0 °F 62% 30.05 in 10.0 mi SW 13.8 mph - N/A   Clear
9:53 AM 48.0 °F - 30.0 °F 50% 30.09 in 10.0 mi West 12.7 mph - N/A   Clear
10:53 AM 52.0 °F - 27.0 °F 38% 30.09 in 10.0 mi WSW 10.4 mph - N/A   Clear
11:53 AM 55.0 °F - 28.0 °F 35% 30.09 in 10.0 mi NW 12.7 mph - N/A   Clear
12:53 PM 57.0 °F - 27.0 °F 32% 30.07 in 10.0 mi WNW 9.2 mph - N/A   Clear
1:53 PM 61.0 °F - 24.1 °F 24% 30.05 in 10.0 mi NW 9.2 mph - N/A   Clear
2:53 PM 63.0 °F - 24.1 °F 23% 30.06 in 10.0 mi NW 11.5 mph 17.3 mph N/A   Clear
3:53 PM 62.1 °F - 21.9 °F 21% 30.09 in 10.0 mi NNW 9.2 mph - N/A   Clear
4:53 PM 57.9 °F - 24.1 °F 27% 30.12 in 10.0 mi NNW 8.1 mph - N/A   Clear
5:53 PM 53.1 °F - 24.1 °F 32% 30.14 in 10.0 mi WNW 5.8 mph - N/A   Clear
6:53 PM 48.0 °F - 24.1 °F 39% 30.17 in 10.0 mi NW 6.9 mph - N/A   Clear
7:53 PM 46.0 °F 43.1 °F 24.1 °F 42% 30.21 in 10.0 mi NW 5.8 mph - N/A   Clear
8:53 PM 39.9 °F 36.7 °F 24.1 °F 53% 30.23 in 10.0 mi NW 4.6 mph - N/A   Clear
9:53 PM 41.0 °F - 24.1 °F 51% 30.24 in 10.0 mi Calm Calm - N/A   Clear
10:53 PM 37.9 °F 35.5 °F 24.1 °F 57% 30.26 in 10.0 mi NNW 3.5 mph - N/A   Clear
11:53 PM 35.1 °F 30.1 °F 24.1 °F 64% 30.28 in 10.0 mi North 5.8 mph - N/A   Clear